COSMOS 1818 COOLANT

Satellite information

Favourite Embed

Satellite Type and Status

DEBRISIN ORBIT

Key statistics

Satellite COSMOS 1818 COOLANT at a glance.

Uptime

14150

Days in orbit

Revolutions

≈ 14.4

Per day

Orbit

LEO

Low Earth Orbit

Inclination

65.0

Latest

Satellite identification and parameters

Extended collection of information and parameters for COSMOS 1818 COOLANT.

Object identification

Identified? True

Debris? False

Object name: COSMOS 1818 COOLANT

International designator: 1987-011V

Object number (NORAD): 36941

Object ID (CCSDS): 36941

Country: COMMONWEALTH OF INDEPENDENT STATES (CIS)

Current information (Y/N): Y

RCS size: SMALL

Orbital parameters

Period: 99.998 minutes

Inclination: 64.9991 deg

SMA: 7136.548 km

Apoapsis: 767.236 km

Periapsis: 749.59 km

RAAN: 98.6575 deg

Eccentricy: 0.00123633

Argument of periapsis: 269.4336 deg

Mean anomaly: 90.5336 deg

Mean motion: 14.40026486 rev/day

Mean motion (dot): 0.00001788 rev/day2

B* drag term: 0.00059800588 1/REarth

Two-line elements (TLE)

Creation date: Oct. 28, 2025, 7:11 p.m.

Reference frame: TEME

Reference center: EARTH

Epoch: Oct. 28, 2025, 3:51 a.m. UTC

TLE line 0: 0 COSMOS 1818 COOLANT

TLE line 1: 1 36941U 87011V 25301.16077095 .00001788 00000-0 59801-3 0 9996

TLE line 2: 2 36941 64.9991 98.6575 0012363 269.4336 90.5336 14.40026486310130

Live tracking on map

Real-time ground track for satellite COSMOS 1818 COOLANT.

In-orbit conjunctions

A list of the most updated potential collisions computed for object COSMOS 1818 COOLANT.

Target Orbit TCA Probability of collision Miss distance Type
SL-8 DEB LEO 2025-09-18 19:45:49 0.0001036064 545.0 (m) DEBRIS
FENGYUN 1C DEB SSO 2024-11-16 00:52:25 0.0002125892 300.0 (m) DEBRIS
METEOR 2-8 DEB LEO 2024-11-11 14:50:32 0.0007905982 286.0 (m) DEBRIS
NOAA 16 DEB SSO 2024-09-10 13:02:57 0.000175573 33.0 (m) DEBRIS
NOAA 16 DEB SSO 2024-08-29 15:00:57 0.00018931 128.0 (m) DEBRIS

Associated space launch

Nuclear-powered magnetospheric research satellite

COSMOS 1818 COOLANT was lifted into orbit during the mission ‘Tsiklon-2 | Plasma-A 1’, on board a Tsiklon-2 space rocket.

The launch took place on Feb. 1, 1987, 11:30 p.m. from 90.

For more information about the launch, click the button.

Launch to space Tsiklon-2 | Plasma-A 1
Tsiklon-2 | Plasma-A 1

Agency: N/A

Status: Launch Successful

Launch date: Feb. 1, 1987, 11:30 p.m. UTC

Rocket: Tsiklon-2

Launch pad: 90

Location: Baikonur Cosmodrome, Republic of Kazakhstan

...

Latest news about this satellite

There are no fresh news available about this satellite. Check back as we update our databases every day.


Newsletter sign-up

Weekly statistics, charts and insights to help you stay on top of the space industry.